#datetime,building,power
2023-06-18T00:00:00,axn,24.32
2023-06-18T00:01:00,axn,23.97
2023-06-18T00:02:00,axn,24.08
2023-06-18T00:03:00,axn,24.03
2023-06-18T00:04:00,axn,23.91
2023-06-18T00:05:00,axn,24.00
2023-06-18T00:06:00,axn,23.95
2023-06-18T00:07:00,axn,24.17
2023-06-18T00:08:00,axn,24.03
2023-06-18T00:09:00,axn,24.03
2023-06-18T00:10:00,axn,24.48
2023-06-18T00:11:00,axn,34.61
2023-06-18T00:12:00,axn,34.53
2023-06-18T00:13:00,axn,34.49
2023-06-18T00:14:00,axn,34.36
2023-06-18T00:15:00,axn,24.26
2023-06-18T00:16:00,axn,24.20
2023-06-18T00:17:00,axn,24.30
2023-06-18T00:18:00,axn,24.18
2023-06-18T00:19:00,axn,24.24
2023-06-18T00:20:00,axn,24.34
2023-06-18T00:21:00,axn,24.43
2023-06-18T00:22:00,axn,24.43
2023-06-18T00:23:00,axn,24.34
2023-06-18T00:24:00,axn,27.28
2023-06-18T00:25:00,axn,24.67
2023-06-18T00:26:00,axn,24.68
2023-06-18T00:27:00,axn,24.24
2023-06-18T00:28:00,axn,24.38
2023-06-18T00:29:00,axn,24.47
2023-06-18T00:30:00,axn,23.98
2023-06-18T00:31:00,axn,24.21
2023-06-18T00:32:00,axn,23.87
2023-06-18T00:33:00,axn,23.88
2023-06-18T00:34:00,axn,23.85
2023-06-18T00:35:00,axn,24.26
2023-06-18T00:36:00,axn,23.98
2023-06-18T00:37:00,axn,23.68
2023-06-18T00:38:00,axn,23.40
2023-06-18T00:39:00,axn,23.86
2023-06-18T00:40:00,axn,23.63
2023-06-18T00:41:00,axn,23.78
2023-06-18T00:42:00,axn,23.70
2023-06-18T00:43:00,axn,23.58
2023-06-18T00:44:00,axn,24.00
2023-06-18T00:45:00,axn,23.64
2023-06-18T00:46:00,axn,24.01
2023-06-18T00:47:00,axn,23.54
2023-06-18T00:48:00,axn,23.63
2023-06-18T00:49:00,axn,23.64
2023-06-18T00:50:00,axn,23.75
2023-06-18T00:51:00,axn,23.62
2023-06-18T00:52:00,axn,23.89
2023-06-18T00:53:00,axn,23.33
2023-06-18T00:54:00,axn,23.23
2023-06-18T00:55:00,axn,23.26
2023-06-18T00:56:00,axn,23.14
2023-06-18T00:57:00,axn,23.11
2023-06-18T00:58:00,axn,23.14
2023-06-18T00:59:00,axn,23.07
2023-06-18T01:00:00,axn,23.17
2023-06-18T01:01:00,axn,23.14
2023-06-18T01:02:00,axn,22.72
2023-06-18T01:03:00,axn,23.18
2023-06-18T01:04:00,axn,23.12
2023-06-18T01:05:00,axn,23.14
2023-06-18T01:06:00,axn,22.97
2023-06-18T01:07:00,axn,23.15
2023-06-18T01:08:00,axn,23.15
2023-06-18T01:09:00,axn,23.16
2023-06-18T01:10:00,axn,23.80
2023-06-18T01:11:00,axn,23.41
2023-06-18T01:12:00,axn,23.42
2023-06-18T01:13:00,axn,23.83
2023-06-18T01:14:00,axn,23.72
2023-06-18T01:15:00,axn,23.52
2023-06-18T01:16:00,axn,23.62
2023-06-18T01:17:00,axn,23.35
2023-06-18T01:18:00,axn,23.43
2023-06-18T01:19:00,axn,23.41
2023-06-18T01:20:00,axn,23.51
2023-06-18T01:21:00,axn,23.57
2023-06-18T01:22:00,axn,23.91
2023-06-18T01:23:00,axn,23.56
2023-06-18T01:24:00,axn,23.53
2023-06-18T01:25:00,axn,23.57
2023-06-18T01:26:00,axn,23.51
2023-06-18T01:27:00,axn,23.35
2023-06-18T01:28:00,axn,23.36
2023-06-18T01:29:00,axn,23.47
2023-06-18T01:30:00,axn,23.46
2023-06-18T01:31:00,axn,23.94
2023-06-18T01:32:00,axn,23.56
2023-06-18T01:33:00,axn,23.55
2023-06-18T01:34:00,axn,23.49
2023-06-18T01:35:00,axn,23.51
2023-06-18T01:36:00,axn,23.50
2023-06-18T01:37:00,axn,23.47
2023-06-18T01:38:00,axn,23.43
2023-06-18T01:39:00,axn,23.69
2023-06-18T01:40:00,axn,23.34
2023-06-18T01:41:00,axn,23.25
2023-06-18T01:42:00,axn,23.32
2023-06-18T01:43:00,axn,23.25
2023-06-18T01:44:00,axn,23.25
2023-06-18T01:45:00,axn,23.34
2023-06-18T01:46:00,axn,23.44
2023-06-18T01:47:00,axn,23.44
2023-06-18T01:48:00,axn,23.65
2023-06-18T01:49:00,axn,23.43
2023-06-18T01:50:00,axn,23.51
2023-06-18T01:51:00,axn,23.28
2023-06-18T01:52:00,axn,23.39
2023-06-18T01:53:00,axn,23.31
2023-06-18T01:54:00,axn,27.91
2023-06-18T01:55:00,axn,27.94
2023-06-18T01:56:00,axn,28.05
2023-06-18T01:57:00,axn,28.03
2023-06-18T01:58:00,axn,23.26
2023-06-18T01:59:00,axn,23.28
2023-06-18T02:00:00,axn,23.91
2023-06-18T02:01:00,axn,23.31
2023-06-18T02:02:00,axn,23.32
2023-06-18T02:03:00,axn,23.30
2023-06-18T02:04:00,axn,23.26
2023-06-18T02:05:00,axn,23.21
2023-06-18T02:06:00,axn,23.90
2023-06-18T02:07:00,axn,23.06
2023-06-18T02:08:00,axn,23.07
2023-06-18T02:09:00,axn,23.03
2023-06-18T02:10:00,axn,23.02
2023-06-18T02:11:00,axn,23.11
2023-06-18T02:12:00,axn,23.14
2023-06-18T02:13:00,axn,23.17
2023-06-18T02:14:00,axn,23.08
2023-06-18T02:15:00,axn,23.19
2023-06-18T02:16:00,axn,23.11
2023-06-18T02:17:00,axn,25.59
2023-06-18T02:18:00,axn,25.78
2023-06-18T02:19:00,axn,25.75
2023-06-18T02:20:00,axn,23.18
2023-06-18T02:21:00,axn,23.29
2023-06-18T02:22:00,axn,23.30
2023-06-18T02:23:00,axn,23.27
2023-06-18T02:24:00,axn,23.31
2023-06-18T02:25:00,axn,23.12
2023-06-18T02:26:00,axn,23.47
2023-06-18T02:27:00,axn,23.18
2023-06-18T02:28:00,axn,23.09
2023-06-18T02:29:00,axn,23.13
2023-06-18T02:30:00,axn,23.15
2023-06-18T02:31:00,axn,23.06
2023-06-18T02:32:00,axn,23.06
2023-06-18T02:33:00,axn,23.16
2023-06-18T02:34:00,axn,23.09
2023-06-18T02:35:00,axn,23.01
2023-06-18T02:36:00,axn,23.18
2023-06-18T02:37:00,axn,23.85
2023-06-18T02:38:00,axn,23.32
2023-06-18T02:39:00,axn,23.38
2023-06-18T02:40:00,axn,23.35
2023-06-18T02:41:00,axn,23.28
2023-06-18T02:42:00,axn,23.34
2023-06-18T02:43:00,axn,23.73
2023-06-18T02:44:00,axn,23.10
2023-06-18T02:45:00,axn,23.20
2023-06-18T02:46:00,axn,23.50
2023-06-18T02:47:00,axn,23.62
2023-06-18T02:48:00,axn,23.30
2023-06-18T02:49:00,axn,23.53
2023-06-18T02:50:00,axn,23.48
2023-06-18T02:51:00,axn,23.62
2023-06-18T02:52:00,axn,23.98
2023-06-18T02:53:00,axn,23.32
2023-06-18T02:54:00,axn,23.34
2023-06-18T02:55:00,axn,23.34
2023-06-18T02:56:00,axn,23.46
2023-06-18T02:57:00,axn,23.60
2023-06-18T02:58:00,axn,26.35
2023-06-18T02:59:00,axn,23.51
2023-06-18T03:00:00,axn,23.39
2023-06-18T03:01:00,axn,23.31
2023-06-18T03:02:00,axn,23.80
2023-06-18T03:03:00,axn,23.46
2023-06-18T03:04:00,axn,23.43
2023-06-18T03:05:00,axn,23.45
2023-06-18T03:06:00,axn,23.47
2023-06-18T03:07:00,axn,23.55
2023-06-18T03:08:00,axn,23.19
2023-06-18T03:09:00,axn,23.40
2023-06-18T03:10:00,axn,23.50
2023-06-18T03:11:00,axn,23.31
2023-06-18T03:12:00,axn,23.76
2023-06-18T03:13:00,axn,23.87
2023-06-18T03:14:00,axn,23.35
2023-06-18T03:15:00,axn,23.36
2023-06-18T03:16:00,axn,23.29
2023-06-18T03:17:00,axn,23.30
2023-06-18T03:18:00,axn,23.25
2023-06-18T03:19:00,axn,23.37
2023-06-18T03:20:00,axn,23.21
2023-06-18T03:21:00,axn,23.15
2023-06-18T03:22:00,axn,23.71
2023-06-18T03:23:00,axn,23.26
2023-06-18T03:24:00,axn,23.28
2023-06-18T03:25:00,axn,23.33
2023-06-18T03:26:00,axn,23.40
2023-06-18T03:27:00,axn,23.43
2023-06-18T03:28:00,axn,23.45
2023-06-18T03:29:00,axn,23.43
2023-06-18T03:30:00,axn,23.09
2023-06-18T03:31:00,axn,23.02
2023-06-18T03:32:00,axn,22.95
2023-06-18T03:33:00,axn,22.87
2023-06-18T03:34:00,axn,22.79
2023-06-18T03:35:00,axn,23.16
2023-06-18T03:36:00,axn,22.98
2023-06-18T03:37:00,axn,22.99
2023-06-18T03:38:00,axn,23.34
2023-06-18T03:39:00,axn,22.90
2023-06-18T03:40:00,axn,22.83
2023-06-18T03:41:00,axn,22.83
2023-06-18T03:42:00,axn,22.94
2023-06-18T03:43:00,axn,22.88
2023-06-18T03:44:00,axn,22.89
2023-06-18T03:45:00,axn,22.87
2023-06-18T03:46:00,axn,22.85
2023-06-18T03:47:00,axn,22.93
2023-06-18T03:48:00,axn,22.90
2023-06-18T03:49:00,axn,22.94
2023-06-18T03:50:00,axn,22.91
2023-06-18T03:51:00,axn,22.75
2023-06-18T03:52:00,axn,22.71
2023-06-18T03:53:00,axn,22.74
2023-06-18T03:54:00,axn,28.61
2023-06-18T03:55:00,axn,28.99
2023-06-18T03:56:00,axn,28.79
2023-06-18T03:57:00,axn,22.86
2023-06-18T03:58:00,axn,22.66
2023-06-18T03:59:00,axn,22.57
2023-06-18T04:00:00,axn,22.62
2023-06-18T04:01:00,axn,22.60
2023-06-18T04:02:00,axn,22.95
2023-06-18T04:03:00,axn,22.71
2023-06-18T04:04:00,axn,22.63
2023-06-18T04:05:00,axn,22.81
2023-06-18T04:06:00,axn,22.83
2023-06-18T04:07:00,axn,23.18
2023-06-18T04:08:00,axn,22.81
2023-06-18T04:09:00,axn,22.69
2023-06-18T04:10:00,axn,22.67
2023-06-18T04:11:00,axn,22.66
2023-06-18T04:12:00,axn,23.17
2023-06-18T04:13:00,axn,22.98
2023-06-18T04:14:00,axn,23.05
2023-06-18T04:15:00,axn,23.57
2023-06-18T04:16:00,axn,23.03
2023-06-18T04:17:00,axn,23.10
2023-06-18T04:18:00,axn,23.77
2023-06-18T04:19:00,axn,22.99
2023-06-18T04:20:00,axn,23.07
2023-06-18T04:21:00,axn,23.06
2023-06-18T04:22:00,axn,23.19
2023-06-18T04:23:00,axn,23.25
2023-06-18T04:24:00,axn,23.18
2023-06-18T04:25:00,axn,23.11
2023-06-18T04:26:00,axn,23.12
2023-06-18T04:27:00,axn,23.10
2023-06-18T04:28:00,axn,23.63
2023-06-18T04:29:00,axn,37.71
2023-06-18T04:30:00,axn,37.48
2023-06-18T04:31:00,axn,37.30
2023-06-18T04:32:00,axn,37.27
2023-06-18T04:33:00,axn,36.84
2023-06-18T04:34:00,axn,22.81
2023-06-18T04:35:00,axn,23.06
2023-06-18T04:36:00,axn,23.31
2023-06-18T04:37:00,axn,23.08
2023-06-18T04:38:00,axn,23.05
2023-06-18T04:39:00,axn,23.13
2023-06-18T04:40:00,axn,22.93
2023-06-18T04:41:00,axn,23.53
2023-06-18T04:42:00,axn,23.29
2023-06-18T04:43:00,axn,23.16
2023-06-18T04:44:00,axn,23.65
2023-06-18T04:45:00,axn,23.22
2023-06-18T04:46:00,axn,23.14
2023-06-18T04:47:00,axn,23.23
2023-06-18T04:48:00,axn,23.43
2023-06-18T04:49:00,axn,23.25
2023-06-18T04:50:00,axn,23.51
2023-06-18T04:51:00,axn,23.18
2023-06-18T04:52:00,axn,23.18
2023-06-18T04:53:00,axn,23.23
2023-06-18T04:54:00,axn,23.29
2023-06-18T04:55:00,axn,23.22
2023-06-18T04:56:00,axn,23.22
2023-06-18T04:57:00,axn,23.14
2023-06-18T04:58:00,axn,23.27
2023-06-18T04:59:00,axn,23.17
2023-06-18T05:00:00,axn,23.58
2023-06-18T05:01:00,axn,22.96
2023-06-18T05:02:00,axn,22.85
2023-06-18T05:03:00,axn,22.85
2023-06-18T05:04:00,axn,22.94
2023-06-18T05:05:00,axn,22.90
2023-06-18T05:06:00,axn,22.82
2023-06-18T05:07:00,axn,22.88
2023-06-18T05:08:00,axn,22.80
2023-06-18T05:09:00,axn,22.77
2023-06-18T05:10:00,axn,22.75
2023-06-18T05:11:00,axn,22.62
2023-06-18T05:12:00,axn,22.94
2023-06-18T05:13:00,axn,22.87
2023-06-18T05:14:00,axn,22.98
2023-06-18T05:15:00,axn,22.94
2023-06-18T05:16:00,axn,22.98
2023-06-18T05:17:00,axn,23.05
2023-06-18T05:18:00,axn,23.11
2023-06-18T05:19:00,axn,23.74
2023-06-18T05:20:00,axn,23.15
2023-06-18T05:21:00,axn,22.95
2023-06-18T05:22:00,axn,22.86
2023-06-18T05:23:00,axn,22.87
2023-06-18T05:24:00,axn,23.05
2023-06-18T05:25:00,axn,22.89
2023-06-18T05:26:00,axn,22.90
2023-06-18T05:27:00,axn,22.97
2023-06-18T05:28:00,axn,22.91
2023-06-18T05:29:00,axn,23.22
2023-06-18T05:30:00,axn,22.96
2023-06-18T05:31:00,axn,25.68
2023-06-18T05:32:00,axn,25.57
2023-06-18T05:33:00,axn,25.38
2023-06-18T05:34:00,axn,25.36
2023-06-18T05:35:00,axn,25.30
2023-06-18T05:36:00,axn,25.17
2023-06-18T05:37:00,axn,25.46
2023-06-18T05:38:00,axn,25.49
2023-06-18T05:39:00,axn,25.56
2023-06-18T05:40:00,axn,25.35
2023-06-18T05:41:00,axn,25.35
2023-06-18T05:42:00,axn,25.38
2023-06-18T05:43:00,axn,25.43
2023-06-18T05:44:00,axn,25.33
2023-06-18T05:45:00,axn,30.98
2023-06-18T05:46:00,axn,28.12
2023-06-18T05:47:00,axn,28.12
2023-06-18T05:48:00,axn,25.20
2023-06-18T05:49:00,axn,25.22
2023-06-18T05:50:00,axn,25.50
2023-06-18T05:51:00,axn,25.16
2023-06-18T05:52:00,axn,25.64
2023-06-18T05:53:00,axn,25.28
2023-06-18T05:54:00,axn,25.33
2023-06-18T05:55:00,axn,25.40
2023-06-18T05:56:00,axn,25.37
2023-06-18T05:57:00,axn,25.53
2023-06-18T05:58:00,axn,25.34
2023-06-18T05:59:00,axn,25.27
2023-06-18T06:00:00,axn,25.64
2023-06-18T06:01:00,axn,25.34
2023-06-18T06:02:00,axn,25.38
2023-06-18T06:03:00,axn,25.20
2023-06-18T06:04:00,axn,24.98
2023-06-18T06:05:00,axn,24.95
2023-06-18T06:06:00,axn,25.03
2023-06-18T06:07:00,axn,25.05
2023-06-18T06:08:00,axn,25.25
2023-06-18T06:09:00,axn,25.05
2023-06-18T06:10:00,axn,25.08
2023-06-18T06:11:00,axn,24.83
2023-06-18T06:12:00,axn,24.94
2023-06-18T06:13:00,axn,25.07
2023-06-18T06:14:00,axn,25.07
2023-06-18T06:15:00,axn,25.49
2023-06-18T06:16:00,axn,25.28
2023-06-18T06:17:00,axn,24.94
2023-06-18T06:18:00,axn,24.92
2023-06-18T06:19:00,axn,24.93
2023-06-18T06:20:00,axn,25.29
2023-06-18T06:21:00,axn,25.34
2023-06-18T06:22:00,axn,25.01
2023-06-18T06:23:00,axn,25.05
2023-06-18T06:24:00,axn,25.01
2023-06-18T06:25:00,axn,24.97
2023-06-18T06:26:00,axn,24.84
2023-06-18T06:27:00,axn,24.87
2023-06-18T06:28:00,axn,24.77
2023-06-18T06:29:00,axn,25.06
2023-06-18T06:30:00,axn,25.02
2023-06-18T06:31:00,axn,24.81
2023-06-18T06:32:00,axn,24.72
2023-06-18T06:33:00,axn,24.75
2023-06-18T06:34:00,axn,24.67
2023-06-18T06:35:00,axn,24.88
2023-06-18T06:36:00,axn,24.69
2023-06-18T06:37:00,axn,24.80
2023-06-18T06:38:00,axn,24.76
2023-06-18T06:39:00,axn,25.25
2023-06-18T06:40:00,axn,24.81
2023-06-18T06:41:00,axn,24.92
2023-06-18T06:42:00,axn,24.98
2023-06-18T06:43:00,axn,24.91
2023-06-18T06:44:00,axn,24.97
2023-06-18T06:45:00,axn,24.82
2023-06-18T06:46:00,axn,24.67
2023-06-18T06:47:00,axn,24.55
2023-06-18T06:48:00,axn,24.56
2023-06-18T06:49:00,axn,25.01
2023-06-18T06:50:00,axn,24.72
2023-06-18T06:51:00,axn,24.64
2023-06-18T06:52:00,axn,24.71
2023-06-18T06:53:00,axn,24.74
2023-06-18T06:54:00,axn,24.88
2023-06-18T06:55:00,axn,24.82
2023-06-18T06:56:00,axn,25.17
2023-06-18T06:57:00,axn,25.28
2023-06-18T06:58:00,axn,25.23
2023-06-18T06:59:00,axn,25.34
2023-06-18T07:00:00,axn,25.32
2023-06-18T07:01:00,axn,28.22
2023-06-18T07:02:00,axn,32.16
2023-06-18T07:03:00,axn,30.46
2023-06-18T07:04:00,axn,30.52
2023-06-18T07:05:00,axn,31.77
2023-06-18T07:06:00,axn,31.35
2023-06-18T07:07:00,axn,31.59
2023-06-18T07:08:00,axn,31.08
2023-06-18T07:09:00,axn,30.94
2023-06-18T07:10:00,axn,30.81
2023-06-18T07:11:00,axn,30.82
2023-06-18T07:12:00,axn,30.93
2023-06-18T07:13:00,axn,30.86
2023-06-18T07:14:00,axn,30.89
2023-06-18T07:15:00,axn,30.98
2023-06-18T07:16:00,axn,30.81
2023-06-18T07:17:00,axn,31.04
2023-06-18T07:18:00,axn,30.99
2023-06-18T07:19:00,axn,31.13
2023-06-18T07:20:00,axn,31.69
2023-06-18T07:21:00,axn,31.16
2023-06-18T07:22:00,axn,30.78
2023-06-18T07:23:00,axn,31.03
2023-06-18T07:24:00,axn,31.04
2023-06-18T07:25:00,axn,30.91
2023-06-18T07:26:00,axn,31.03
2023-06-18T07:27:00,axn,31.07
2023-06-18T07:28:00,axn,31.29
2023-06-18T07:29:00,axn,41.29
2023-06-18T07:30:00,axn,41.64
2023-06-18T07:31:00,axn,41.43
2023-06-18T07:32:00,axn,41.49
2023-06-18T07:33:00,axn,31.07
2023-06-18T07:34:00,axn,31.10
2023-06-18T07:35:00,axn,30.94
2023-06-18T07:36:00,axn,30.89
2023-06-18T07:37:00,axn,30.89
2023-06-18T07:38:00,axn,30.65
2023-06-18T07:39:00,axn,30.64
2023-06-18T07:40:00,axn,30.88
2023-06-18T07:41:00,axn,31.06
2023-06-18T07:42:00,axn,31.09
2023-06-18T07:43:00,axn,30.71
2023-06-18T07:44:00,axn,30.70
2023-06-18T07:45:00,axn,30.99
2023-06-18T07:46:00,axn,31.11
2023-06-18T07:47:00,axn,30.90
2023-06-18T07:48:00,axn,31.06
2023-06-18T07:49:00,axn,31.05
2023-06-18T07:50:00,axn,30.89
2023-06-18T07:51:00,axn,30.77
2023-06-18T07:52:00,axn,30.91
2023-06-18T07:53:00,axn,31.22
2023-06-18T07:54:00,axn,31.19
2023-06-18T07:55:00,axn,31.91
2023-06-18T07:56:00,axn,31.45
2023-06-18T07:57:00,axn,31.37
2023-06-18T07:58:00,axn,31.57
2023-06-18T07:59:00,axn,31.64
2023-06-18T08:00:00,axn,31.59
2023-06-18T08:01:00,axn,31.63
2023-06-18T08:02:00,axn,31.53
2023-06-18T08:03:00,axn,31.51
2023-06-18T08:04:00,axn,31.35
2023-06-18T08:05:00,axn,31.60
2023-06-18T08:06:00,axn,32.08
2023-06-18T08:07:00,axn,32.33
2023-06-18T08:08:00,axn,32.35
2023-06-18T08:09:00,axn,32.21
2023-06-18T08:10:00,axn,32.48
2023-06-18T08:11:00,axn,32.28
2023-06-18T08:12:00,axn,32.39
2023-06-18T08:13:00,axn,32.12
2023-06-18T08:14:00,axn,32.27
2023-06-18T08:15:00,axn,32.23
2023-06-18T08:16:00,axn,32.15
2023-06-18T08:17:00,axn,32.27
2023-06-18T08:18:00,axn,32.12
2023-06-18T08:19:00,axn,32.50
2023-06-18T08:20:00,axn,32.58
2023-06-18T08:21:00,axn,32.32
2023-06-18T08:22:00,axn,32.31
2023-06-18T08:23:00,axn,32.52
2023-06-18T08:24:00,axn,31.86
2023-06-18T08:25:00,axn,31.98
2023-06-18T08:26:00,axn,31.89
2023-06-18T08:27:00,axn,31.99
2023-06-18T08:28:00,axn,32.16
2023-06-18T08:29:00,axn,32.34
2023-06-18T08:30:00,axn,32.24
2023-06-18T08:31:00,axn,32.46
2023-06-18T08:32:00,axn,32.54
2023-06-18T08:33:00,axn,32.72
2023-06-18T08:34:00,axn,32.19
2023-06-18T08:35:00,axn,32.17
2023-06-18T08:36:00,axn,32.03
2023-06-18T08:37:00,axn,32.07
2023-06-18T08:38:00,axn,31.96
2023-06-18T08:39:00,axn,31.80
2023-06-18T08:40:00,axn,31.55
2023-06-18T08:41:00,axn,31.88
2023-06-18T08:42:00,axn,31.74
2023-06-18T08:43:00,axn,32.28
2023-06-18T08:44:00,axn,32.10
2023-06-18T08:45:00,axn,31.94
2023-06-18T08:46:00,axn,31.99
2023-06-18T08:47:00,axn,31.82
2023-06-18T08:48:00,axn,31.74
2023-06-18T08:49:00,axn,31.52
2023-06-18T08:50:00,axn,31.83
2023-06-18T08:51:00,axn,31.79
2023-06-18T08:52:00,axn,31.59
2023-06-18T08:53:00,axn,31.53
2023-06-18T08:54:00,axn,34.55
2023-06-18T08:55:00,axn,34.43
2023-06-18T08:56:00,axn,31.58
2023-06-18T08:57:00,axn,31.66
2023-06-18T08:58:00,axn,31.83
2023-06-18T08:59:00,axn,31.75
2023-06-18T09:00:00,axn,31.81
2023-06-18T09:01:00,axn,31.96
2023-06-18T09:02:00,axn,31.54
2023-06-18T09:03:00,axn,31.52
2023-06-18T09:04:00,axn,31.64
2023-06-18T09:05:00,axn,31.52
2023-06-18T09:06:00,axn,31.54
2023-06-18T09:07:00,axn,31.96
2023-06-18T09:08:00,axn,31.79
2023-06-18T09:09:00,axn,31.38
2023-06-18T09:10:00,axn,31.21
2023-06-18T09:11:00,axn,31.38
2023-06-18T09:12:00,axn,31.40
2023-06-18T09:13:00,axn,31.50
2023-06-18T09:14:00,axn,31.47
2023-06-18T09:15:00,axn,34.22
2023-06-18T09:16:00,axn,34.37
2023-06-18T09:17:00,axn,34.71
2023-06-18T09:18:00,axn,32.17
2023-06-18T09:19:00,axn,32.11
2023-06-18T09:20:00,axn,32.06
2023-06-18T09:21:00,axn,32.33
2023-06-18T09:22:00,axn,32.09
2023-06-18T09:23:00,axn,32.86
2023-06-18T09:24:00,axn,31.96
2023-06-18T09:25:00,axn,32.24
2023-06-18T09:26:00,axn,31.87
2023-06-18T09:27:00,axn,31.75
2023-06-18T09:28:00,axn,31.63
2023-06-18T09:29:00,axn,31.98
2023-06-18T09:30:00,axn,31.82
2023-06-18T09:31:00,axn,31.95
2023-06-18T09:32:00,axn,32.41
2023-06-18T09:33:00,axn,31.83
2023-06-18T09:34:00,axn,31.70
2023-06-18T09:35:00,axn,31.33
2023-06-18T09:36:00,axn,31.18
2023-06-18T09:37:00,axn,31.25
2023-06-18T09:38:00,axn,31.53
2023-06-18T09:39:00,axn,32.15
2023-06-18T09:40:00,axn,31.52
2023-06-18T09:41:00,axn,31.44
2023-06-18T09:42:00,axn,31.43
2023-06-18T09:43:00,axn,31.75
2023-06-18T09:44:00,axn,31.97
2023-06-18T09:45:00,axn,31.53
2023-06-18T09:46:00,axn,31.69
2023-06-18T09:47:00,axn,31.86
2023-06-18T09:48:00,axn,31.46
2023-06-18T09:49:00,axn,31.56
2023-06-18T09:50:00,axn,31.39
2023-06-18T09:51:00,axn,31.56
2023-06-18T09:52:00,axn,31.37
2023-06-18T09:53:00,axn,31.38
2023-06-18T09:54:00,axn,31.52
2023-06-18T09:55:00,axn,31.55
2023-06-18T09:56:00,axn,31.51
2023-06-18T09:57:00,axn,31.35
2023-06-18T09:58:00,axn,31.35
2023-06-18T09:59:00,axn,35.76
2023-06-18T10:00:00,axn,35.63
2023-06-18T10:01:00,axn,35.65
2023-06-18T10:02:00,axn,31.15
2023-06-18T10:03:00,axn,31.87
2023-06-18T10:04:00,axn,31.49
2023-06-18T10:05:00,axn,31.14
2023-06-18T10:06:00,axn,31.55
2023-06-18T10:07:00,axn,31.33
2023-06-18T10:08:00,axn,31.30
2023-06-18T10:09:00,axn,30.95
2023-06-18T10:10:00,axn,30.94
2023-06-18T10:11:00,axn,31.01
2023-06-18T10:12:00,axn,31.20
2023-06-18T10:13:00,axn,31.05
2023-06-18T10:14:00,axn,30.86
2023-06-18T10:15:00,axn,30.98
2023-06-18T10:16:00,axn,31.16
2023-06-18T10:17:00,axn,31.14
2023-06-18T10:18:00,axn,31.34
2023-06-18T10:19:00,axn,31.61
2023-06-18T10:20:00,axn,31.74
2023-06-18T10:21:00,axn,31.57
2023-06-18T10:22:00,axn,31.38
2023-06-18T10:23:00,axn,31.10
2023-06-18T10:24:00,axn,31.47
2023-06-18T10:25:00,axn,31.61
2023-06-18T10:26:00,axn,31.85
2023-06-18T10:27:00,axn,31.85
2023-06-18T10:28:00,axn,31.47
2023-06-18T10:29:00,axn,31.97
2023-06-18T10:30:00,axn,31.67
2023-06-18T10:31:00,axn,31.80
2023-06-18T10:32:00,axn,31.77
2023-06-18T10:33:00,axn,31.83
2023-06-18T10:34:00,axn,31.67
2023-06-18T10:35:00,axn,31.64
2023-06-18T10:36:00,axn,31.37
2023-06-18T10:37:00,axn,31.23
2023-06-18T10:38:00,axn,31.07
2023-06-18T10:39:00,axn,30.75
2023-06-18T10:40:00,axn,30.72
2023-06-18T10:41:00,axn,30.84
2023-06-18T10:42:00,axn,30.67
2023-06-18T10:43:00,axn,30.88
2023-06-18T10:44:00,axn,30.98
2023-06-18T10:45:00,axn,31.16
2023-06-18T10:46:00,axn,30.84
2023-06-18T10:47:00,axn,30.69
2023-06-18T10:48:00,axn,30.24
2023-06-18T10:49:00,axn,30.39
2023-06-18T10:50:00,axn,30.43
2023-06-18T10:51:00,axn,30.43
2023-06-18T10:52:00,axn,30.46
2023-06-18T10:53:00,axn,30.63
2023-06-18T10:54:00,axn,30.47
2023-06-18T10:55:00,axn,31.13
2023-06-18T10:56:00,axn,30.75
2023-06-18T10:57:00,axn,30.72
2023-06-18T10:58:00,axn,30.56
2023-06-18T10:59:00,axn,30.71
2023-06-18T11:00:00,axn,30.49
2023-06-18T11:01:00,axn,30.47
2023-06-18T11:02:00,axn,30.70
2023-06-18T11:03:00,axn,30.37
2023-06-18T11:04:00,axn,30.51
2023-06-18T11:05:00,axn,30.32
2023-06-18T11:06:00,axn,30.17
2023-06-18T11:07:00,axn,30.40
2023-06-18T11:08:00,axn,30.54
2023-06-18T11:09:00,axn,30.21
2023-06-18T11:10:00,axn,30.33
2023-06-18T11:11:00,axn,30.28
2023-06-18T11:12:00,axn,30.30
2023-06-18T11:13:00,axn,30.74
2023-06-18T11:14:00,axn,44.82
2023-06-18T11:15:00,axn,44.54
2023-06-18T11:16:00,axn,44.21
2023-06-18T11:17:00,axn,44.48
2023-06-18T11:18:00,axn,44.80
2023-06-18T11:19:00,axn,30.03
2023-06-18T11:20:00,axn,30.32
2023-06-18T11:21:00,axn,30.27
2023-06-18T11:22:00,axn,30.25
2023-06-18T11:23:00,axn,30.23
2023-06-18T11:24:00,axn,30.15
2023-06-18T11:25:00,axn,30.18
2023-06-18T11:26:00,axn,30.14
2023-06-18T11:27:00,axn,30.14
2023-06-18T11:28:00,axn,30.32
2023-06-18T11:29:00,axn,30.92
2023-06-18T11:30:00,axn,30.12
2023-06-18T11:31:00,axn,29.98
2023-06-18T11:32:00,axn,29.95
2023-06-18T11:33:00,axn,30.01
2023-06-18T11:34:00,axn,30.19
2023-06-18T11:35:00,axn,29.99
2023-06-18T11:36:00,axn,30.01
2023-06-18T11:37:00,axn,29.84
2023-06-18T11:38:00,axn,30.11
2023-06-18T11:39:00,axn,29.82
2023-06-18T11:40:00,axn,30.04
2023-06-18T11:41:00,axn,30.17
2023-06-18T11:42:00,axn,30.10
2023-06-18T11:43:00,axn,30.12
2023-06-18T11:44:00,axn,33.04
2023-06-18T11:45:00,axn,33.14
2023-06-18T11:46:00,axn,30.27
2023-06-18T11:47:00,axn,30.11
2023-06-18T11:48:00,axn,29.96
2023-06-18T11:49:00,axn,29.93
2023-06-18T11:50:00,axn,29.75
2023-06-18T11:51:00,axn,29.96
2023-06-18T11:52:00,axn,30.07
2023-06-18T11:53:00,axn,29.85
2023-06-18T11:54:00,axn,30.83
2023-06-18T11:55:00,axn,30.35
2023-06-18T11:56:00,axn,30.51
2023-06-18T11:57:00,axn,30.31
2023-06-18T11:58:00,axn,30.37
2023-06-18T11:59:00,axn,30.37
2023-06-18T12:00:00,axn,30.01
2023-06-18T12:01:00,axn,30.15
2023-06-18T12:02:00,axn,29.89
2023-06-18T12:03:00,axn,29.95
2023-06-18T12:04:00,axn,30.00
2023-06-18T12:05:00,axn,30.58
2023-06-18T12:06:00,axn,30.37
2023-06-18T12:07:00,axn,30.46
2023-06-18T12:08:00,axn,29.93
2023-06-18T12:09:00,axn,29.98
2023-06-18T12:10:00,axn,30.60
2023-06-18T12:11:00,axn,30.55
2023-06-18T12:12:00,axn,36.36
2023-06-18T12:13:00,axn,36.32
2023-06-18T12:14:00,axn,36.43
2023-06-18T12:15:00,axn,30.45
2023-06-18T12:16:00,axn,30.50
2023-06-18T12:17:00,axn,30.48
2023-06-18T12:18:00,axn,30.65
2023-06-18T12:19:00,axn,30.53
2023-06-18T12:20:00,axn,30.58
2023-06-18T12:21:00,axn,30.89
2023-06-18T12:22:00,axn,30.65
2023-06-18T12:23:00,axn,32.52
2023-06-18T12:24:00,axn,32.24
2023-06-18T12:25:00,axn,33.14
2023-06-18T12:26:00,axn,32.51
2023-06-18T12:27:00,axn,32.45
2023-06-18T12:28:00,axn,32.41
2023-06-18T12:29:00,axn,32.27
2023-06-18T12:30:00,axn,31.65
2023-06-18T12:31:00,axn,31.94
2023-06-18T12:32:00,axn,31.57
2023-06-18T12:33:00,axn,31.46
2023-06-18T12:34:00,axn,31.58
2023-06-18T12:35:00,axn,31.20
2023-06-18T12:36:00,axn,31.59
2023-06-18T12:37:00,axn,31.39
2023-06-18T12:38:00,axn,31.13
2023-06-18T12:39:00,axn,30.93
2023-06-18T12:40:00,axn,31.11
2023-06-18T12:41:00,axn,31.32
2023-06-18T12:42:00,axn,31.11
2023-06-18T12:43:00,axn,31.25
2023-06-18T12:44:00,axn,31.33
2023-06-18T12:45:00,axn,31.16
2023-06-18T12:46:00,axn,31.10
2023-06-18T12:47:00,axn,31.17
2023-06-18T12:48:00,axn,33.73
2023-06-18T12:49:00,axn,33.66
2023-06-18T12:50:00,axn,33.62
2023-06-18T12:51:00,axn,30.81
2023-06-18T12:52:00,axn,30.80
2023-06-18T12:53:00,axn,30.86
2023-06-18T12:54:00,axn,31.32
2023-06-18T12:55:00,axn,30.88
2023-06-18T12:56:00,axn,30.87
2023-06-18T12:57:00,axn,30.76
2023-06-18T12:58:00,axn,30.72
2023-06-18T12:59:00,axn,30.66
2023-06-18T13:00:00,axn,30.71
2023-06-18T13:01:00,axn,30.89
2023-06-18T13:02:00,axn,31.01
2023-06-18T13:03:00,axn,30.73
2023-06-18T13:04:00,axn,30.94
2023-06-18T13:05:00,axn,30.64
2023-06-18T13:06:00,axn,30.78
2023-06-18T13:07:00,axn,30.80
2023-06-18T13:08:00,axn,30.45
2023-06-18T13:09:00,axn,30.35
2023-06-18T13:10:00,axn,30.46
2023-06-18T13:11:00,axn,30.43
2023-06-18T13:12:00,axn,30.50
2023-06-18T13:13:00,axn,30.43
2023-06-18T13:14:00,axn,30.68
2023-06-18T13:15:00,axn,30.49
2023-06-18T13:16:00,axn,30.63
2023-06-18T13:17:00,axn,30.43
2023-06-18T13:18:00,axn,30.71